1511877600.87,44093,10.94,72712.8,-5.83,-26.97,-24.15,0,*5C
1511877602.12,44094,10.94,72720.5,-5.83,-26.97,-24.11,0,*5F
1511877603.38,44095,10.94,72728.0,-5.83,-26.97,-24.15,0,*5A
1511877604.64,44096,10.94,72714.5,-5.83,-26.97,-24.25,0,*5A
1511877605.87,44097,10.94,72718.3,-5.83,-27.07,-24.11,0,*54
1511877607.12,44098,10.94,72716.3,-5.83,-26.93,-24.11,0,*57
1511877608.4,44099,10.94,72718.8,-5.77,-26.93,-23.95,0,*56
1511877609.65,44100,10.94,72720.8,-5.83,-26.97,-24.11,0,*53
1511877610.91,44101,10.94,72718.5,-5.83,-26.93,-24.11,0,*56
1511877612.16,44102,10.94,72720.0,-5.83,-26.93,-23.99,0,*52
1511877613.42,44103,10.94,72718.8,-5.83,-26.93,-23.99,0,*53
1511877614.67,44104,10.94,72714.8,-5.83,-26.93,-23.99,0,*54
1511877615.93,44105,10.94,72722.8,-5.83,-26.93,-23.85,0,*58
1511877617.18,44106,10.88,72718.0,-5.83,-26.93,-23.95,0,*5A
1511877618.42,44107,10.94,72724.0,-5.79,-26.77,-23.79,0,*56
1511877619.65,44108,10.94,72724.3,-5.79,-26.77,-23.79,0,*59
1511877620.86,44109,10.94,72720.0,-5.79,-26.87,-23.75,0,*5B
1511877622.06,44110,10.94,72720.3,-5.79,-26.87,-23.79,0,*5F
1511877623.27,44111,10.94,72726.8,-5.79,-26.87,-23.89,0,*51
1511877624.53,44112,10.94,72724.0,-5.77,-26.77,-23.79,0,*5C
1511877625.76,44113,10.94,72724.8,-5.79,-26.77,-23.89,0,*5C
1511877627.0,44114,10.94,72716.3,-5.79,-26.77,-23.79,0,*54
1511877628.23,44115,10.94,72726.3,-5.79,-26.71,-23.75,0,*5F
1511877629.46,44116,10.94,72730.8,-5.79,-26.71,-23.79,0,*50
1511877630.7,44117,10.94,72730.0,-5.79,-26.77,-23.75,0,*5B
1511877631.96,44118,10.94,72732.5,-5.77,-26.71,-23.75,0,*5C
1511877633.19,44119,10.94,72730.0,-5.79,-26.71,-23.75,0,*53
1511877634.47,44120,10.94,72726.0,-5.77,-26.77,-23.65,0,*50
1511877635.73,44121,10.94,72718.5,-5.79,-26.77,-23.65,0,*5F
1511877636.96,44122,10.94,72730.3,-5.79,-26.71,-23.59,0,*55
1511877638.22,44123,10.94,72724.5,-5.79,-26.71,-23.49,0,*55
1511877639.47,44124,10.94,72718.5,-5.77,-26.71,-23.59,0,*5D
1511877640.75,44125,10.94,72722.5,-5.77,-26.71,-23.49,0,*5D
1511877641.99,44126,10.94,72730.3,-5.79,-26.77,-23.59,0,*57
1511877643.23,44127,10.94,72730.0,-5.79,-26.77,-23.75,0,*58
1511877644.51,44128,10.94,72734.0,-5.77,-26.77,-23.65,0,*58
1511877645.77,44129,10.94,72726.0,-5.79,-26.77,-23.65,0,*57
1511877647.0,44130,10.94,72726.0,-5.79,-26.71,-23.59,0,*56
1511877648.28,44131,10.94,72728.0,-5.77,-26.71,-23.49,0,*58
1511877649.56,44132,10.94,72730.5,-5.77,-26.55,-23.49,0,*5D
1511877650.81,44133,10.94,72726.0,-5.79,-26.71,-23.49,0,*54
1511877652.05,44134,10.94,72724.8,-5.79,-26.77,-23.59,0,*54
1511877653.31,44135,10.94,72728.8,-5.79,-26.77,-23.49,0,*54
1511877654.54,44136,10.94,72728.8,-5.79,-26.71,-23.59,0,*50
1511877655.8,44137,10.94,72730.5,-5.77,-26.71,-23.43,0,*54
1511877657.04,44138,10.94,72732.5,-5.79,-26.71,-23.43,0,*55
1511877658.27,44139,10.94,72734.0,-5.79,-26.55,-23.39,0,*5F
1511877659.48,44140,10.94,72734.0,-5.79,-26.61,-23.43,0,*5B
1511877660.71,44141,10.94,72732.0,-5.79,-26.71,-23.39,0,*56
1511877661.93,44142,10.94,72734.8,-5.79,-26.61,-23.43,0,*59
1511877663.16,44143,10.88,72732.0,-5.79,-26.55,-23.39,0,*52
1511877664.38,44144,10.94,72730.8,-5.79,-26.55,-23.39,0,*55
1511877665.59,44145,10.94,72732.5,-5.79,-26.61,-23.39,0,*53
1511877666.83,44146,10.94,72734.8,-5.79,-26.71,-23.43,0,*5C
1511877668.04,44147,10.94,72736.8,-5.79,-26.61,-23.43,0,*5C
1511877669.25,44148,10.88,72732.8,-5.79,-26.61,-23.39,0,*5E
1511877670.48,44149,10.94,72736.5,-5.79,-26.71,-23.43,0,*53
1511877671.72,44150,10.88,72732.8,-5.79,-26.77,-23.39,0,*50
1511877672.96,44151,10.94,72738.3,-5.83,-26.77,-23.43,0,*59
1511877674.18,44152,10.94,72738.5,-5.83,-26.65,-23.43,0,*59
1511877675.39,44153,10.94,72736.5,-5.83,-26.61,-23.43,0,*5C
1511877676.63,44154,10.94,72736.5,-5.83,-26.65,-23.33,0,*58
1511877677.86,44155,10.94,72738.3,-5.83,-26.61,-23.33,0,*5D
1511877679.11,44156,10.94,72740.8,-5.85,-26.61,-23.29,0,*53
1511877680.39,44157,10.94,72742.5,-5.85,-26.55,-23.19,0,*56
1511877681.59,44158,10.94,72736.5,-5.83,-26.45,-23.13,0,*54
1511877682.85,44159,10.94,72736.8,-5.85,-26.29,-23.13,0,*59
1511877684.11,44160,10.94,72734.5,-5.85,-26.29,-22.97,0,*5E
1511877685.31,44161,10.94,72730.3,-5.83,-26.23,-22.97,0,*53
1511877686.54,44162,10.94,72734.5,-5.83,-26.13,-22.87,0,*52
1511877687.77,44163,10.88,72730.3,-5.83,-26.13,-22.87,0,*53
1511877689.03,44164,10.94,72734.5,-5.83,-26.29,-23.03,0,*50
1511877690.26,44165,10.88,72736.0,-5.85,-26.39,-22.97,0,*5A
1511877691.47,44166,10.94,72738.8,-5.83,-26.39,-23.13,0,*52
1511877692.73,44167,10.88,72730.8,-5.85,-26.29,-22.97,0,*59
1511877693.93,44168,10.94,72730.8,-5.83,-26.23,-22.83,0,*5F
1511877695.13,44169,10.94,72730.0,-5.83,-26.07,-22.67,0,*52
1511877696.37,44170,10.94,72732.3,-5.83,-25.97,-22.67,0,*50
1511877697.6,44171,10.88,72732.0,-5.83,-25.97,-22.57,0,*52
1511877698.83,44172,10.88,72730.0,-5.83,-25.97,-22.53,0,*55
1511877700.07,44173,10.94,72728.3,-5.83,-25.97,-22.57,0,*50
1511877701.3,44174,10.94,72722.0,-5.83,-25.97,-22.53,0,*53
1511877702.51,44175,10.88,72724.0,-5.83,-26.07,-22.57,0,*5C
1511877703.75,44176,10.94,72736.5,-5.83,-25.97,-22.57,0,*55
1511877704.98,44177,10.94,72734.0,-5.83,-25.97,-22.53,0,*50
1511877706.24,44178,10.94,72732.8,-5.85,-25.97,-22.57,0,*5D
1511877707.47,44179,10.94,72730.8,-5.83,-25.97,-22.57,0,*5A
1511877708.71,44180,10.88,72732.3,-5.83,-25.97,-22.53,0,*58
1511877709.96,44181,10.94,72738.3,-5.79,-26.03,-22.47,0,*57
1511877711.16,44182,10.88,72738.0,-5.79,-25.91,-22.53,0,*59
1511877712.37,44183,10.94,72742.3,-5.79,-25.91,-22.53,0,*58
1511877713.61,44184,10.94,72740.5,-5.83,-25.97,-22.57,0,*58
1511877714.84,44185,10.94,72742.0,-5.83,-25.97,-22.53,0,*5D
1511877716.08,44186,10.94,72742.0,-5.83,-25.97,-22.53,0,*5E
1511877717.3,44187,10.88,72742.5,-5.83,-25.97,-22.41,0,*5C
1511877718.51,44188,10.94,72740.0,-5.83,-26.07,-22.53,0,*5A
1511877719.77,44189,10.88,72736.8,-5.85,-25.97,-22.53,0,*57
1511877721.0,44190,10.88,72742.5,-5.83,-25.97,-22.37,0,*5B
1511877722.25,44191,10.94,72736.8,-5.85,-25.81,-22.37,0,*5B
1511877723.54,44192,10.88,72730.8,-5.85,-25.75,-22.31,0,*55
1511877724.8,44193,10.94,72734.5,-5.83,-25.75,-22.31,0,*52
1511877726.05,44194,10.94,72730.5,-5.83,-25.75,-22.21,0,*54
1511877727.28,44195,10.88,72732.0,-5.83,-25.91,-22.31,0,*5E
1511877728.54,44196,10.88,72734.3,-5.85,-25.91,-22.31,0,*5B
1511877729.79,44197,10.88,72732.0,-5.83,-25.81,-22.31,0,*5D
1511877731.08,44198,10.88,72732.0,-5.85,-25.81,-22.31,0,*54
1511877732.36,44199,10.94,72732.3,-5.85,-25.75,-22.21,0,*5F
1511877733.64,44200,10.88,72734.0,-5.85,-25.81,-22.31,0,*56
1511877734.92,44201,10.88,72736.5,-5.85,-25.81,-22.31,0,*57
1511877736.17,44202,10.88,72732.0,-5.83,-25.75,-22.21,0,*58
1511877737.43,44203,10.88,72732.8,-5.85,-25.91,-22.31,0,*54
1511877738.71,44204,10.88,72732.0,-5.85,-25.75,-22.31,0,*59
1511877739.96,44205,10.88,72730.8,-5.85,-25.91,-22.21,0,*53
1511877741.24,44206,10.88,72728.8,-5.85,-25.81,-22.21,0,*51
1511877742.49,44207,10.94,72732.8,-5.85,-25.91,-22.21,0,*51
1511877743.74,44208,10.88,72730.8,-5.85,-25.81,-22.07,0,*5B
1511877745.03,44209,10.94,72732.5,-5.85,-25.81,-22.17,0,*5B
1511877746.31,44210,10.94,72734.8,-5.85,-25.81,-22.17,0,*53
1511877747.54,44211,10.88,72724.3,-5.85,-25.65,-22.07,0,*59
1511877748.77,44212,10.94,72730.5,-5.85,-25.65,-21.93,0,*54
1511877750.0,44213,10.88,72730.3,-5.85,-25.61,-21.93,0,*51
1511877751.24,44214,10.88,72728.3,-5.87,-25.55,-21.93,0,*53
1511877752.46,44215,10.88,72728.0,-5.85,-25.39,-21.73,0,*54
1511877753.69,44216,10.88,72728.0,-5.85,-25.39,-21.63,0,*56
1511877754.92,44217,10.88,72724.5,-5.85,-25.39,-21.63,0,*57
1511877756.14,44218,10.88,72724.5,-5.85,-25.39,-21.63,0,*58
1511877757.39,44219,10.88,72728.8,-5.85,-25.29,-21.47,0,*5E
1511877758.62,44220,10.88,72732.0,-5.87,-25.29,-21.63,0,*50
1511877759.88,44221,10.88,72722.8,-5.87,-25.29,-21.53,0,*52
1511877761.1,44222,10.88,72720.3,-5.85,-25.23,-21.47,0,*5C
1511877762.33,44223,10.88,72730.0,-5.85,-25.23,-21.47,0,*5D
1511877763.55,44224,10.88,72726.0,-5.85,-25.09,-21.43,0,*56
1511877764.78,44225,10.88,72726.8,-5.85,-25.13,-21.43,0,*5C
1511877766.01,44226,10.88,72726.8,-5.85,-25.13,-21.43,0,*5F
1511877767.24,44227,10.88,72716.5,-5.85,-25.13,-21.43,0,*5E
1511877768.46,44228,10.88,72718.8,-5.85,-25.09,-21.43,0,*5A
1511877769.69,44229,10.88,72716.3,-5.85,-25.09,-21.43,0,*5B
1511877770.91,44230,10.88,72720.5,-5.85,-25.09,-21.39,0,*5E
1511877772.14,44231,10.94,72724.3,-5.85,-25.13,-21.43,0,*59
1511877773.37,44232,10.94,72728.5,-5.85,-25.13,-21.39,0,*57
1511877774.63,44233,10.88,72724.8,-5.85,-25.09,-21.27,0,*52
1511877775.89,44234,10.94,72724.3,-5.85,-25.09,-21.27,0,*55
1511877777.14,44235,10.94,72720.0,-5.85,-24.97,-21.27,0,*52
1511877778.4,44236,10.88,72722.8,-5.85,-24.97,-21.23,0,*55
1511877779.66,44237,10.88,72726.3,-5.85,-24.97,-21.27,0,*50
1511877780.87,44238,10.94,72730.0,-5.85,-24.93,-21.09,0,*57
1511877782.13,44239,10.88,72720.8,-5.85,-24.83,-21.09,0,*57
1511877783.32,44240,10.88,72716.5,-5.83,-24.93,-21.13,0,*55
1511877784.58,44241,10.88,72722.0,-5.85,-24.83,-21.09,0,*58
1511877785.79,44242,10.88,72718.8,-5.85,-24.93,-21.09,0,*5A
1511877787.06,44243,10.88,72716.5,-5.83,-24.83,-20.99,0,*54
1511877788.27,44244,10.88,72718.8,-5.85,-24.93,-21.09,0,*5C
1511877789.51,44245,10.88,72718.5,-5.83,-24.83,-20.93,0,*58
1511877790.75,44246,10.88,72718.8,-5.83,-24.83,-20.93,0,*5B
1511877791.99,44247,10.88,72722.5,-5.83,-24.83,-20.93,0,*5A
1511877793.25,44248,10.88,72714.0,-5.83,-24.83,-20.99,0,*5F
1511877794.49,44249,10.88,72720.0,-5.83,-24.77,-20.83,0,*5E
1511877795.77,44250,10.88,72722.3,-5.85,-24.83,-20.83,0,*5B
1511877797.03,44251,10.88,72716.3,-5.83,-24.67,-20.79,0,*53
1511877798.26,44252,10.88,72718.0,-5.83,-24.77,-20.83,0,*54
1511877799.49,44253,10.88,72714.3,-5.83,-24.61,-20.79,0,*57
1511877800.7,44254,10.88,72722.3,-5.83,-24.61,-20.69,0,*51
1511877801.91,44255,10.94,72724.5,-5.83,-24.61,-20.63,0,*5A
1511877803.15,44256,10.88,72720.3,-5.85,-24.61,-20.63,0,*5F
1511877804.36,44257,10.88,72716.0,-5.83,-24.61,-20.63,0,*58
1511877805.6,44258,10.88,72722.8,-5.83,-24.67,-20.69,0,*5B
1511877806.85,44259,10.88,72722.5,-5.85,-24.67,-20.69,0,*5C
1511877808.11,44260,10.88,72724.3,-5.85,-24.61,-20.83,0,*54
1511877809.36,44261,10.88,72724.5,-5.85,-24.61,-20.79,0,*50
1511877810.59,44262,10.88,72726.3,-5.79,-24.47,-20.63,0,*5F
1511877811.82,44263,10.88,72728.0,-5.85,-24.61,-20.69,0,*53
1511877813.07,44264,10.88,72730.0,-5.85,-24.67,-20.69,0,*52
1511877814.33,44265,10.88,72728.8,-5.83,-24.67,-20.79,0,*54
1511877815.56,44266,10.88,72728.5,-5.83,-24.61,-20.79,0,*51
1511877816.8,44267,10.88,72724.3,-5.77,-24.57,-20.59,0,*5C
1511877818.04,44268,10.88,72724.5,-5.83,-24.67,-20.63,0,*52
1511877819.25,44269,10.88,72722.3,-5.83,-24.61,-20.63,0,*55
1511877820.49,44270,10.88,72716.0,-5.85,-24.51,-20.63,0,*58
1511877821.74,44271,10.88,72718.5,-5.83,-24.51,-20.49,0,*57
1511877823.01,44272,10.88,72716.5,-5.85,-24.51,-20.53,0,*59
1511877824.22,44273,10.88,72724.8,-5.79,-24.57,-20.63,0,*5E
1511877825.43,44274,10.88,72724.8,-5.83,-24.61,-20.63,0,*59
1511877826.7,44275,10.88,72722.3,-5.85,-24.47,-20.49,0,*52
1511877827.97,44276,10.88,72724.5,-5.85,-24.61,-20.53,0,*5E
1511877829.21,44277,10.88,72724.3,-5.83,-24.47,-20.49,0,*56
1511877830.46,44278,10.88,72726.0,-5.83,-24.51,-20.49,0,*5E
1511877831.73,44279,10.88,72726.3,-5.85,-24.47,-20.49,0,*5E
1511877832.99,44280,10.88,72730.3,-5.85,-24.47,-20.53,0,*53
1511877834.26,44281,10.88,72732.0,-5.85,-24.47,-20.49,0,*59
1511877835.53,44282,10.88,72734.8,-5.85,-24.51,-20.53,0,*56
1511877836.8,44283,10.88,72730.5,-5.85,-24.51,-20.53,0,*57
1511877838.07,44284,10.88,72734.8,-5.85,-24.51,-20.49,0,*5B
1511877839.34,44285,10.88,72730.3,-5.85,-24.47,-20.49,0,*5D
1511877840.61,44286,10.88,72732.8,-5.85,-24.47,-20.49,0,*5E
1511877841.87,44287,10.88,72734.5,-5.85,-24.47,-20.35,0,*54
1511877843.08,44288,10.88,72730.8,-5.83,-24.47,-20.29,0,*50
1511877844.37,44289,10.88,72738.0,-5.85,-24.41,-20.35,0,*5C
1511877845.59,44290,10.88,72732.8,-5.87,-24.31,-20.25,0,*50
1511877846.83,44291,10.88,72734.8,-5.87,-24.31,-20.19,0,*5E
1511877848.12,44292,10.88,72738.5,-5.85,-24.25,-20.19,0,*5A
1511877849.38,44293,10.88,72732.5,-5.85,-24.11,-19.91,0,*56
1511877850.61,44294,10.88,72730.3,-5.83,-23.99,-19.91,0,*50
1511877851.83,44295,10.88,72726.5,-5.87,-24.05,-19.91,0,*57
1511877853.11,44296,10.88,72722.0,-5.85,-23.99,-19.85,0,*51
1511877854.36,44297,10.88,72730.5,-5.85,-24.11,-19.99,0,*5A
1511877855.58,44298,10.88,72730.5,-5.87,-24.05,-19.91,0,*5A
1511877856.83,44299,10.88,72738.8,-5.85,-23.99,-19.91,0,*5B
1511877858.09,44300,10.88,72730.8,-5.85,-23.99,-19.91,0,*5A
1511877859.3,44301,10.88,72728.0,-5.87,-24.05,-19.91,0,*5B
1511877860.54,44302,10.88,72728.8,-5.87,-23.89,-19.81,0,*5A
1511877861.79,44303,10.88,72728.0,-5.87,-23.99,-19.81,0,*5A
1511877863.05,44304,10.88,72722.8,-5.85,-23.85,-19.71,0,*5D
1511877864.3,44305,10.88,72724.5,-5.85,-23.85,-19.71,0,*5C
1511877865.56,44306,10.88,72728.0,-5.85,-23.85,-19.75,0,*5B
1511877866.79,44307,10.88,72726.0,-5.85,-23.79,-19.71,0,*5D
1511877868.04,44308,10.88,72724.8,-5.85,-23.69,-19.71,0,*53
1511877869.3,44309,10.88,72728.0,-5.85,-23.79,-19.57,0,*57
1511877870.57,44310,10.88,72728.0,-5.85,-23.69,-19.61,0,*5B
1511877871.86,44311,10.88,72722.3,-5.85,-23.69,-19.57,0,*5F
1511877873.15,44312,10.88,72726.0,-5.85,-23.53,-19.57,0,*55
1511877874.44,44313,10.88,72722.5,-5.85,-23.53,-19.57,0,*54
1511877875.7,44314,10.88,72724.8,-5.83,-23.65,-19.57,0,*50
1511877876.95,44315,10.88,72720.3,-5.85,-23.53,-19.47,0,*53
1511877878.21,44316,10.88,72720.0,-5.85,-23.49,-19.47,0,*5B
1511877879.47,44317,10.88,72718.3,-5.83,-23.33,-19.41,0,*57
1511877880.67,44318,10.88,72716.8,-5.83,-23.43,-19.47,0,*59
1511877881.91,44319,10.88,72720.8,-5.85,-23.43,-19.47,0,*5E
1511877883.16,44320,10.88,72722.8,-5.83,-23.33,-19.41,0,*53
1511877884.37,44321,10.88,72728.0,-5.83,-23.43,-19.47,0,*53
1511877885.61,44322,10.88,72726.3,-5.83,-23.49,-19.47,0,*5A
1511877886.81,44323,10.88,72724.0,-5.83,-23.43,-19.47,0,*51
1511877888.07,44324,10.88,72722.0,-5.83,-23.33,-19.41,0,*57
1511877889.3,44325,10.88,72722.3,-5.79,-23.23,-19.37,0,*53
1511877890.53,44326,10.88,72720.8,-5.79,-23.39,-19.41,0,*5A
1511877891.76,44327,10.88,72722.0,-5.83,-23.49,-19.47,0,*5F
1511877893.02,44328,10.88,72724.8,-5.85,-23.49,-19.47,0,*56
1511877894.25,44329,10.88,72724.0,-5.79,-23.39,-19.41,0,*55
1511877895.48,44330,10.88,72722.5,-5.79,-23.39,-19.41,0,*5D
1511877896.72,44331,10.88,72730.0,-5.79,-23.43,-19.41,0,*51
1511877897.98,44332,10.88,72724.3,-5.79,-23.29,-19.41,0,*5E
1511877899.21,44333,10.88,72726.8,-5.79,-23.39,-19.41,0,*5E
1511877900.44,44334,10.88,72724.3,-5.79,-23.39,-19.41,0,*59
1511877901.68,44335,10.88,72726.8,-5.83,-23.43,-19.61,0,*52
1511877902.94,44336,10.88,72726.8,-5.83,-23.33,-19.57,0,*53
1511877904.17,44337,10.88,72726.3,-5.83,-23.33,-19.47,0,*53
1511877905.4,44338,10.88,72726.8,-5.83,-23.33,-19.47,0,*5C
1511877906.63,44339,10.88,72726.8,-5.83,-23.33,-19.47,0,*5D
1511877907.89,44340,10.88,72730.8,-5.79,-23.29,-19.41,0,*5B
1511877909.15,44341,10.88,72728.5,-5.79,-23.29,-19.41,0,*5A
1511877910.38,44342,10.88,72728.0,-5.83,-23.29,-19.47,0,*5A
1511877911.63,44343,10.88,72726.0,-5.85,-23.29,-19.47,0,*5D
1511877912.88,44344,10.88,72726.5,-5.85,-23.29,-19.47,0,*5A
1511877914.14,44345,10.88,72726.3,-5.85,-23.29,-19.47,0,*5B
1511877915.37,44346,10.88,72722.8,-5.83,-23.29,-19.47,0,*5E
1511877916.6,44347,10.88,72722.8,-5.83,-23.29,-19.47,0,*5F
1511877917.88,44348,10.88,72724.3,-5.85,-23.29,-19.41,0,*50
1511877919.11,44349,10.88,72730.3,-5.83,-23.19,-19.47,0,*52
1511877920.36,44350,10.88,72726.0,-5.85,-23.29,-19.47,0,*5F
1511877921.59,44351,10.88,72724.3,-5.83,-23.19,-19.47,0,*5B
1511877922.82,44352,10.88,72728.0,-5.83,-23.13,-19.41,0,*54
1511877924.06,44353,10.88,72728.3,-5.83,-23.13,-19.41,0,*55
1511877925.29,44354,10.88,72724.5,-5.85,-23.13,-19.37,0,*55
1511877926.55,44355,10.88,72730.3,-5.85,-23.03,-19.37,0,*55
1511877927.75,44356,10.88,72726.8,-5.83,-22.97,-19.37,0,*5C
1511877929.01,44357,10.88,72726.8,-5.85,-22.87,-19.27,0,*5B
1511877930.23,44358,10.88,72720.5,-5.83,-22.87,-19.27,0,*52
1511877931.46,44359,10.88,72720.8,-5.85,-22.87,-19.37,0,*54
1511877932.72,44360,10.88,72716.0,-5.85,-22.97,-19.41,0,*5E
1511877933.95,44361,10.88,72720.3,-5.85,-22.97,-19.37,0,*5E
1511877935.19,44362,10.88,72720.8,-5.79,-22.83,-19.41,0,*5A
1511877936.42,44363,10.88,72720.3,-5.83,-22.87,-19.27,0,*5A
1511877937.62,44364,10.88,72724.5,-5.83,-22.87,-19.37,0,*5C
1511877938.85,44365,10.88,72722.8,-5.83,-22.87,-19.41,0,*5C
1511877940.08,44366,10.88,72726.5,-5.83,-22.87,-19.41,0,*5F
1511877941.33,44367,10.88,72728.3,-5.85,-22.83,-19.41,0,*5C
1511877942.58,44368,10.88,72728.0,-5.85,-22.87,-19.41,0,*57
1511877943.81,44369,10.88,72730.5,-5.83,-22.83,-19.41,0,*54
1511877945.07,44370,10.88,72730.8,-5.85,-22.83,-19.27,0,*5A
1511877946.27,44371,10.88,72730.3,-5.83,-22.41,-19.13,0,*54
1511877947.5,44372,10.88,72726.8,-5.85,-22.41,-19.13,0,*51
1511877948.73,44373,10.88,72722.0,-5.85,-22.41,-19.13,0,*50
1511877949.95,44374,10.88,72726.0,-5.85,-22.41,-18.99,0,*54
1511877951.17,44375,10.88,72724.3,-5.85,-22.41,-19.07,0,*53
1511877952.39,44376,10.88,72724.8,-5.85,-22.41,-19.07,0,*50
1511877953.61,44377,10.88,72720.8,-5.85,-22.37,-19.07,0,*50
1511877954.82,44378,10.88,72722.8,-5.79,-22.37,-19.17,0,*5D
1511877956.05,44379,10.88,72722.3,-5.85,-22.41,-19.13,0,*5A
1511877957.25,44380,10.88,72724.5,-5.83,-22.41,-19.07,0,*5F
1511877958.45,44381,10.88,72720.8,-5.83,-22.41,-19.13,0,*5B
1511877959.66,44382,10.88,72720.8,-5.83,-22.37,-19.13,0,*59
1511877960.87,44383,10.88,72724.5,-5.83,-22.37,-19.13,0,*58
1511877962.08,44384,10.88,72724.8,-5.83,-22.37,-19.13,0,*5F
1511877963.3,44385,10.88,72722.3,-5.79,-22.31,-19.07,0,*58
1511877964.54,44386,10.88,72722.0,-5.83,-22.31,-19.13,0,*5B
1511877965.79,44387,10.88,72722.5,-5.85,-22.31,-19.13,0,*5C
1511877967.04,44388,10.88,72726.5,-5.83,-22.31,-19.23,0,*56
1511877968.27,44389,10.88,72716.3,-5.83,-22.41,-19.23,0,*50
1511877969.52,44390,10.88,72720.3,-5.83,-22.31,-19.23,0,*5F
1511877970.77,44391,10.88,72722.8,-5.83,-22.31,-19.23,0,*5E
1511877972.03,44392,10.88,72720.5,-5.83,-22.21,-19.23,0,*5C
1511877973.28,44393,10.88,72722.3,-5.85,-22.21,-19.13,0,*58
1511877974.54,44394,10.88,72724.5,-5.83,-22.21,-19.23,0,*5A
1511877975.81,44395,10.88,72720.8,-5.85,-22.31,-19.23,0,*5C
1511877977.07,44396,10.88,72716.0,-5.83,-22.21,-19.23,0,*58
1511877978.32,44397,10.88,72716.3,-5.83,-22.21,-19.23,0,*59
1511877979.57,44398,10.88,72716.5,-5.83,-22.21,-19.23,0,*56
1511877980.83,44399,10.88,72724.0,-5.83,-22.21,-19.27,0,*53
1511877982.07,44400,10.88,72720.5,-5.83,-22.17,-19.13,0,*56
1511877983.27,44401,10.88,72712.8,-5.79,-22.03,-19.17,0,*53
1511877984.5,44402,10.88,72714.3,-5.79,-22.03,-19.23,0,*57
1511877985.71,44403,10.88,72714.3,-5.79,-22.11,-19.17,0,*52
1511877986.92,44404,10.88,72714.0,-5.79,-22.11,-19.17,0,*55
1511877988.18,44405,10.88,72718.0,-5.83,-22.17,-19.27,0,*54
1511877989.4,44406,10.88,72716.3,-5.83,-22.07,-19.23,0,*52
1511877990.6,44407,10.88,72718.0,-5.79,-22.03,-19.07,0,*54
1511877991.82,44408,10.88,72710.5,-5.85,-22.07,-19.13,0,*59
1511877993.04,44409,10.88,72718.3,-5.79,-21.97,-19.07,0,*54
1511877994.27,44410,10.88,72712.8,-5.79,-21.97,-19.07,0,*5C
1511877995.49,44411,10.88,72712.0,-5.79,-21.97,-19.07,0,*5D
1511877996.72,44412,10.88,72706.0,-5.79,-21.87,-19.03,0,*5B
1511877997.95,44413,10.88,72708.0,-5.79,-21.87,-19.03,0,*5A
1511877999.23,44414,10.88,72714.5,-5.77,-21.83,-18.93,0,*5F
1511878000.46,44415,10.88,72718.5,-5.79,-21.83,-19.03,0,*58
1511878001.69,44416,10.88,72716.8,-5.79,-21.83,-19.07,0,*5F
1511878002.92,44417,10.88,72714.3,-5.79,-21.87,-19.07,0,*5A
1511878004.15,44418,10.88,72720.5,-5.79,-21.87,-19.03,0,*51
1511878005.38,44419,10.88,72722.8,-5.79,-21.87,-19.03,0,*50
1511878006.61,44420,10.88,72718.8,-5.79,-21.87,-19.03,0,*5A
1511878007.87,44421,10.88,72716.5,-5.77,-21.87,-19.17,0,*50
1511878009.11,44422,10.88,72720.5,-5.79,-21.97,-19.17,0,*5C
1511878010.34,44423,10.88,72720.3,-5.79,-21.97,-19.17,0,*5D
1511878011.57,44424,10.88,72718.8,-5.79,-21.97,-19.17,0,*5A
1511878012.83,44425,10.88,72720.5,-5.79,-21.97,-19.23,0,*5C
1511878014.08,44426,10.88,72726.3,-5.79,-21.97,-19.23,0,*5F
1511878015.34,44427,10.88,72724.3,-5.79,-21.97,-19.31,0,*5D
1511878016.59,44428,10.88,72724.5,-5.79,-21.97,-19.31,0,*52
1511878017.82,44429,10.88,72732.0,-5.79,-22.03,-19.41,0,*5A
1511878019.06,44430,10.88,72732.5,-5.79,-22.03,-19.31,0,*55
1511878020.32,44431,10.88,72732.3,-5.79,-21.87,-19.31,0,*5B
1511878021.6,44432,10.88,72734.8,-5.77,-21.87,-19.23,0,*55
1511878022.88,44433,10.88,72730.5,-5.77,-21.87,-19.23,0,*54
1511878024.12,44434,10.88,72730.0,-5.79,-21.97,-19.37,0,*59
1511878025.35,44435,10.88,72730.5,-5.79,-21.83,-19.17,0,*5F
1511878026.61,44436,10.88,72724.0,-5.83,-21.87,-19.23,0,*5A
1511878027.85,44437,10.88,72722.3,-5.79,-21.67,-19.17,0,*57
1511878029.08,44438,10.88,72720.3,-5.79,-21.67,-19.03,0,*5D
1511878030.31,44439,10.88,72726.0,-5.79,-21.67,-19.03,0,*5C
1511878031.54,44440,10.88,72726.0,-5.79,-21.57,-19.03,0,*51
1511878032.76,44441,10.88,72720.5,-5.79,-21.57,-19.03,0,*50
1511878033.99,44442,10.88,72724.8,-5.79,-21.67,-19.03,0,*50
1511878035.22,44443,10.88,72720.5,-5.79,-21.67,-19.03,0,*51
1511878036.46,44444,10.88,72720.8,-5.79,-21.67,-19.17,0,*53
1511878037.72,44445,10.88,72722.5,-5.79,-21.87,-19.23,0,*5B
1511878039.0,44446,10.88,72724.8,-5.77,-21.83,-19.23,0,*52
1511878040.28,44447,10.88,72728.3,-5.77,-21.83,-19.31,0,*50
1511878041.52,44448,10.88,72726.8,-5.79,-21.73,-19.23,0,*5D
1511878042.75,44449,10.88,72728.5,-5.79,-21.73,-19.23,0,*5C
1511878043.98,44450,10.88,72722.5,-5.79,-21.73,-19.31,0,*57
1511878045.21,44451,10.88,72722.8,-5.79,-21.73,-19.23,0,*55
1511878046.45,44452,10.88,72726.0,-5.77,-21.73,-19.17,0,*5F
1511878047.69,44453,10.88,72724.8,-5.79,-21.67,-19.17,0,*55
1511878048.9,44454,10.88,72728.8,-5.79,-21.73,-19.17,0,*57
1511878050.14,44455,10.88,72730.3,-5.79,-21.67,-19.17,0,*53
1511878051.39,44456,10.88,72728.5,-5.77,-21.53,-19.03,0,*5C
1511878052.59,44457,10.88,72724.5,-5.79,-21.43,-19.07,0,*56
1511878053.82,44458,10.88,72730.8,-5.79,-21.57,-19.03,0,*58
1511878055.04,44459,10.88,72726.8,-5.79,-21.57,-19.07,0,*5D
1511878056.29,44460,10.88,72724.5,-5.77,-21.57,-19.07,0,*59
1511878057.51,44461,10.88,72728.3,-5.79,-21.57,-19.07,0,*56
1511878058.75,44462,10.88,72722.3,-5.79,-21.67,-19.17,0,*57
1511878059.99,44463,10.88,72726.0,-5.79,-21.57,-19.17,0,*55
1511878061.22,44464,10.88,72730.3,-5.79,-21.57,-19.17,0,*52
1511878062.48,44465,10.88,72732.0,-5.79,-21.67,-19.23,0,*57
1511878063.71,44466,10.88,72734.5,-5.79,-21.73,-19.23,0,*51
1511878064.94,44467,10.88,72732.0,-5.79,-21.73,-19.23,0,*50
1511878066.17,44468,10.88,72734.5,-5.83,-21.63,-19.23,0,*5B
1511878067.4,44469,10.88,72738.0,-5.83,-21.73,-19.27,0,*5F
1511878068.65,44470,10.88,72730.0,-5.79,-21.57,-19.23,0,*50
1511878069.85,44471,10.88,72728.3,-5.79,-21.43,-19.03,0,*56
1511878071.08,44472,10.88,72734.5,-5.79,-21.43,-18.93,0,*5D
1511878072.31,44473,10.88,72732.0,-5.85,-21.47,-18.99,0,*51
1511878073.57,44474,10.88,72728.0,-5.79,-21.33,-18.93,0,*5C
1511878074.82,44475,10.88,72728.3,-5.79,-21.33,-18.93,0,*5D
1511878076.05,44476,10.88,72724.3,-5.79,-21.33,-18.79,0,*5A
1511878077.28,44477,10.88,72724.8,-5.79,-21.39,-18.89,0,*5E
1511878078.54,44478,10.88,72724.0,-5.79,-21.33,-18.93,0,*50
1511878079.79,44479,10.88,72726.5,-5.79,-21.33,-18.89,0,*5A
1511878081.04,44480,10.88,72724.3,-5.79,-21.33,-18.89,0,*5C
1511878082.3,44481,10.88,72722.8,-5.79,-21.33,-18.89,0,*5D
1511878083.55,44482,10.88,72718.5,-5.79,-21.33,-18.89,0,*5E
1511878084.81,44483,10.88,72722.3,-5.79,-21.33,-18.93,0,*54
1511878086.07,44484,10.88,72730.3,-5.79,-21.33,-18.93,0,*53
1511878087.27,44485,10.88,72728.3,-5.79,-21.39,-19.03,0,*50
1511878088.49,44486,10.88,72734.0,-5.79,-21.33,-19.03,0,*59
1511878089.75,44487,10.88,72728.3,-5.79,-21.33,-18.93,0,*50
1511878090.98,44488,10.88,72726.3,-5.79,-21.23,-18.79,0,*5A
1511878092.26,44489,10.88,72728.5,-5.77,-21.23,-18.89,0,*5A
1511878093.51,44490,10.88,72730.3,-5.77,-21.17,-18.89,0,*55
1511878094.74,44491,10.88,72728.3,-5.79,-21.17,-18.89,0,*5A
1511878095.98,44492,10.88,72730.5,-5.79,-21.17,-18.93,0,*52